Simultaneous Nadir Overpasses (SNOs) Predictions

Prediction of SNOs between GOES-15 and METOP-A Satellite Orbit:

Table of predicted SNOs for the next 14.0 days since TLE Epoch: 10/25/2019
Index Date Time (GOES-15) GOES-15 Lat,Lon METOP-A Lat,Lon Distance(km) Time Diff (sec)
1 10/27/2019 05:49:24 0.28,-128.36 -0.66,-132.60 484.15 80
2 10/28/2019 05:26:05 0.28,-128.37 0.41,-127.62 85.42 80
3 10/29/2019 17:44:58 -0.28,-128.40 0.57,-132.22 434.61 80
4 10/30/2019 17:26:59 -0.27,-128.42 -0.51,-127.23 135.03 80
5 11/01/2019 05:46:00 0.27,-128.44 -0.50,-131.86 389.42 80
6 11/02/2019 05:22:41 0.27,-128.45 0.63,-126.88 179.54 80
7 11/03/2019 17:41:34 -0.27,-128.47 0.40,-131.47 341.53 80
8 11/04/2019 17:23:34 -0.26,-128.49 -0.68,-126.48 227.64 80
9 11/06/2019 05:42:35 0.26,-128.51 -0.33,-131.11 296.91 80
10 11/07/2019 05:19:17 0.26,-128.52 0.80,-126.14 271.68 80
11 11/08/2019 17:38:09 -0.26,-128.53 0.23,-130.72 250.19 80




NCC Satellite Simultaneous Nadir Overpasses (SNOs) Prediction Service
